When you browse on this site, cookies collect data to enhance your experience and personalize the content and advertising you see.
Visit our Privacy Policy to learn more. By continuing to use the site, you agree to this use of cookies and data.
  • In Austria
  • List of Countries
  • For 7 days
  • Water Temperature
  • Weather Map
  • News
  • Weather Widgets
  • user-avatar
    Login

    Hourly Weather Hrazdan

    Today, 29 February, Saturday

    Time Temperature Precipitation Wind Pressure Humidity
    00:00 -4°C° 0 mm 2 mps 606 mmHg 73%
    01:00 -4°C° 0 mm 2 mps 606 mmHg 74%
    02:00 -4°C° 0 mm 2 mps 606 mmHg 74%
    03:00 -4°C° 0 mm 2 mps 606 mmHg 72%
    04:00 -4°C° 0 mm 2 mps 606 mmHg 72%
    05:00 -4°C° 0 mm 2 mps 606 mmHg 72%
    06:00 -2°C° 0 mm 1 mps 606 mmHg 72%
    07:00 -1°C° 0 mm 1 mps 607 mmHg 73%
    08:00 +1°C° 0 mm 1 mps 607 mmHg 74%
    09:00 +2°C° 0 mm 1 mps 607 mmHg 76%
    10:00 +2°C° 0 mm 1 mps 607 mmHg 79%
    11:00 +3°C° 0 mm 1 mps 607 mmHg 83%
    12:00 +4°C° 0 mm 1 mps 607 mmHg 86%
    13:00 +4°C° 0 mm 1 mps 606 mmHg 86%
    14:00 +4°C° 0 mm 1 mps 606 mmHg 86%
    15:00 +4°C° 0 mm 1 mps 605 mmHg 86%
    16:00 +3°C° 0 mm 1 mps 605 mmHg 84%
    17:00 +2°C° 0 mm 1 mps 605 mmHg 83%
    18:00 +1°C° 0 mm 1 mps 605 mmHg 81%
    19:00 +1°C° 0.2 mm 1 mps 605 mmHg 84%
    20:00 +1°C° 0.2 mm 1 mps 605 mmHg 88%
    21:00 0°C° 0.2 mm 1 mps 605 mmHg 91%
    22:00 0°C° 0.3 mm 1 mps 605 mmHg 91%
    23:00 +1°C° 0.3 mm 1 mps 605 mmHg 91%

    Tomorrow, 1 March, Sunday

    Time Temperature Precipitation Wind Pressure Humidity
    00:00 +1°C° 0.3 mm 1 mps 604 mmHg 92%
    01:00 +1°C° 0.6 mm 1 mps 604 mmHg 93%
    02:00 +1°C° 0.6 mm 1 mps 604 mmHg 94%
    03:00 +1°C° 0.6 mm 1 mps 604 mmHg 95%
    04:00 +1°C° 0.3 mm 1 mps 604 mmHg 95%
    05:00 +1°C° 0.3 mm 1 mps 604 mmHg 94%
    06:00 -2°C° 0.3 mm 2 mps 605 mmHg 94%
    07:00 +1°C° 0.1 mm 1 mps 605 mmHg 94%
    08:00 +2°C° 0.1 mm 1 mps 606 mmHg 94%
    09:00 +2°C° 0.1 mm 1 mps 606 mmHg 94%
    10:00 +2°C° 0.3 mm 1 mps 606 mmHg 94%
    11:00 +3°C° 0.3 mm 1 mps 606 mmHg 95%
    12:00 +3°C° 0.3 mm 1 mps 606 mmHg 95%
    13:00 +3°C° 0.3 mm 1 mps 606 mmHg 95%
    14:00 +3°C° 0.3 mm 1 mps 606 mmHg 95%
    15:00 +3°C° 0.3 mm 1 mps 606 mmHg 95%
    16:00 +2°C° 0.2 mm 1 mps 606 mmHg 94%
    17:00 +1°C° 0.2 mm 1 mps 606 mmHg 93%
    18:00 -1°C° 0.2 mm 2 mps 606 mmHg 92%
    19:00 -2°C° 0.1 mm 2 mps 607 mmHg 92%
    20:00 -2°C° 0.1 mm 2 mps 607 mmHg 92%
    21:00 -2°C° 0.1 mm 2 mps 607 mmHg 92%
    22:00 -3°C° 0 mm 2 mps 607 mmHg 91%
    23:00 -3°C° 0 mm 2 mps 607 mmHg 91%

    Day after tomorrow, 2 March, Monday

    Time Temperature Precipitation Wind Pressure Humidity
    00:00 -4°C° 0 mm 2 mps 607 mmHg 91%
    01:00 -4°C° 0 mm 2 mps 608 mmHg 91%
    02:00 -4°C° 0 mm 2 mps 608 mmHg 91%
    03:00 -4°C° 0 mm 2 mps 608 mmHg 91%
    04:00 -4°C° 0 mm 2 mps 608 mmHg 91%
    05:00 -5°C° 0 mm 2 mps 608 mmHg 90%
    06:00 -5°C° 0 mm 2 mps 608 mmHg 90%
    07:00 -4°C° 0 mm 2 mps 609 mmHg 90%
    08:00 -3°C° 0 mm 2 mps 609 mmHg 89%
    09:00 -3°C° 0 mm 2 mps 610 mmHg 88%
    10:00 0°C° 0 mm 1 mps 610 mmHg 89%
    11:00 +1°C° 0 mm 1 mps 610 mmHg 89%
    12:00 +1°C° 0 mm 1 mps 610 mmHg 89%
    13:00 +1°C° 0 mm 1 mps 610 mmHg 89%
    14:00 +2°C° 0 mm 1 mps 610 mmHg 89%
    15:00 +2°C° 0 mm 1 mps 610 mmHg 89%
    16:00 +1°C° 0 mm 1 mps 610 mmHg 89%
    17:00 0°C° 0 mm 1 mps 610 mmHg 90%
    18:00 -1°C° 0 mm 1 mps 610 mmHg 90%
    19:00 -1°C° 0 mm 1 mps 610 mmHg 90%
    20:00 -2°C° 0 mm 1 mps 610 mmHg 89%
    21:00 -2°C° 0 mm 1 mps 610 mmHg 89%
    22:00 -2°C° 0 mm 1 mps 611 mmHg 87%
    23:00 -2°C° 0 mm 1 mps 611 mmHg 86%

    3 March, Tuesday

    Time Temperature Precipitation Wind Pressure Humidity
    00:00 -3°C° 0 mm 1 mps 611 mmHg 85%
    01:00 -3°C° 0 mm 1 mps 611 mmHg 84%
    02:00 -3°C° 0 mm 1 mps 611 mmHg 83%
    03:00 -3°C° 0 mm 1 mps 611 mmHg 83%
    04:00 -3°C° 0 mm 1 mps 611 mmHg 83%
    05:00 -3°C° 0 mm 1 mps 611 mmHg 83%
    06:00 -3°C° 0 mm 1 mps 611 mmHg 83%
    07:00 -2°C° 0 mm 1 mps 612 mmHg 83%
    08:00 -1°C° 0 mm 1 mps 612 mmHg 84%
    09:00 +1°C° 0 mm 1 mps 613 mmHg 84%
    10:00 +1°C° 0 mm 1 mps 613 mmHg 85%
    11:00 +2°C° 0 mm 1 mps 613 mmHg 86%
    12:00 +2°C° 0 mm 1 mps 613 mmHg 87%
    13:00 +3°C° 0 mm 1 mps 612 mmHg 86%
    14:00 +3°C° 0 mm 1 mps 612 mmHg 86%
    15:00 +3°C° 0 mm 1 mps 612 mmHg 85%
    16:00 +2°C° 0 mm 1 mps 612 mmHg 85%
    17:00 +1°C° 0 mm 1 mps 611 mmHg 85%
    18:00 0°C° 0 mm 1 mps 611 mmHg 85%
    19:00 0°C° 0 mm 1 mps 612 mmHg 82%
    20:00 -1°C° 0 mm 1 mps 612 mmHg 79%
    21:00 -1°C° 0 mm 1 mps 612 mmHg 76%
    22:00 -1°C° 0 mm 1 mps 612 mmHg 74%
    23:00 -1°C° 0 mm 1 mps 612 mmHg 72%

    4 March, Wednesday

    Time Temperature Precipitation Wind Pressure Humidity
    00:00 -1°C° 0 mm 1 mps 612 mmHg 70%
    01:00 -2°C° 0 mm 1 mps 612 mmHg 69%
    02:00 -2°C° 0 mm 1 mps 612 mmHg 68%
    03:00 -2°C° 0 mm 1 mps 612 mmHg 67%
    04:00 -2°C° 0 mm 1 mps 612 mmHg 66%
    05:00 -2°C° 0 mm 1 mps 612 mmHg 64%
    06:00 -2°C° 0 mm 1 mps 612 mmHg 63%
    07:00 -1°C° 0 mm 1 mps 612 mmHg 64%
    08:00 +1°C° 0 mm 1 mps 613 mmHg 65%
    09:00 +2°C° 0 mm 1 mps 614 mmHg 66%
    10:00 +3°C° 0 mm 1 mps 614 mmHg 69%
    11:00 +3°C° 0 mm 1 mps 613 mmHg 72%
    12:00 +4°C° 0 mm 1 mps 613 mmHg 75%
    13:00 +4°C° 0 mm 1 mps 613 mmHg 74%
    14:00 +5°C° 0 mm 1 mps 613 mmHg 74%
    15:00 +5°C° 0 mm 1 mps 612 mmHg 74%
    16:00 +3°C° 0 mm 1 mps 612 mmHg 71%
    17:00 +2°C° 0 mm 1 mps 611 mmHg 69%
    18:00 +1°C° 0 mm 1 mps 611 mmHg 67%
    19:00 +1°C° 0 mm 1 mps 611 mmHg 63%
    20:00 +1°C° 0 mm 1 mps 612 mmHg 60%
    21:00 +1°C° 0 mm 1 mps 612 mmHg 56%
    22:00 +1°C° 0 mm 1 mps 612 mmHg 56%
    23:00 0°C° 0 mm 1 mps 612 mmHg 55%

    5 March, Thursday

    Time Temperature Precipitation Wind Pressure Humidity
    00:00 0°C° 0 mm 1 mps 612 mmHg 54%
    01:00 0°C° 0 mm 1 mps 611 mmHg 54%
    02:00 0°C° 0 mm 1 mps 611 mmHg 54%
    03:00 0°C° 0 mm 1 mps 611 mmHg 53%
    04:00 0°C° 0 mm 1 mps 611 mmHg 53%
    05:00 0°C° 0 mm 1 mps 611 mmHg 52%
    06:00 -1°C° 0 mm 1 mps 611 mmHg 52%
    07:00 +1°C° 0 mm 1 mps 611 mmHg 54%
    08:00 +2°C° 0 mm 1 mps 612 mmHg 56%
    09:00 +3°C° 0 mm 1 mps 612 mmHg 58%
    10:00 +4°C° 0 mm 1 mps 612 mmHg 61%
    11:00 +5°C° 0 mm 1 mps 612 mmHg 65%
    12:00 +6°C° 0 mm 1 mps 612 mmHg 68%
    13:00 +6°C° 0 mm 1 mps 611 mmHg 67%
    14:00 +6°C° 0 mm 1 mps 611 mmHg 67%
    15:00 +6°C° 0 mm 1 mps 611 mmHg 66%
    16:00 +5°C° 0 mm 1 mps 610 mmHg 64%
    17:00 +4°C° 0 mm 1 mps 610 mmHg 62%
    18:00 +2°C° 0 mm 1 mps 609 mmHg 60%
    19:00 +2°C° 0 mm 1 mps 609 mmHg 57%
    20:00 +2°C° 0 mm 1 mps 610 mmHg 55%
    21:00 +2°C° 0 mm 1 mps 610 mmHg 52%
    22:00 +2°C° 0 mm 1 mps 610 mmHg 52%
    23:00 +1°C° 0 mm 1 mps 609 mmHg 52%
    Show more